This is the latest recevied weather packets stored in our database for station/object SP9KB-13. If no packets are shown the sender has not sent any weather packets the latest 10 day(s).
| Time | Temp. | Humidity | Pressure | Rain* | Wind** | Luminosity | Snow |
|---|---|---|---|---|---|---|---|
| 1777447116 | 6.67° C | 49% | 1004.5 hPa | 0 mm | - | - | - |
| 1777446816 | 6.11° C | 50% | 1004.8 hPa | 0 mm | - | - | - |
| 1777446515 | 6.67° C | 50% | 1004.7 hPa | 0 mm | - | - | - |
| 1777446215 | 6.67° C | 50% | 1004.7 hPa | 0 mm | - | - | - |
| 1777445914 | 6.67° C | 50% | 1004.6 hPa | 0 mm | - | - | - |
| 1777445614 | 6.11° C | 51% | 1004.7 hPa | 0 mm | - | - | - |
| 1777445313 | 6.67° C | 51% | 1004.7 hPa | 0 mm | - | - | - |
| 1777445012 | 6.67° C | 52% | 1004.6 hPa | 0 mm | - | - | - |
| 1777444712 | 6.11° C | 53% | 1004.6 hPa | 0 mm | - | - | - |
| 1777444411 | 6.11° C | 52% | 1004.7 hPa | 0 mm | - | - | - |
| 1777444111 | 6.11° C | 53% | 1004.6 hPa | 0 mm | - | - | - |
| 1777443810 | 5.56° C | 52% | 1004.8 hPa | 0 mm | - | - | - |
| 1777443510 | 5.56° C | 55% | 1004.8 hPa | 0 mm | - | - | - |
| 1777443209 | 4.44° C | 58% | 1004.7 hPa | 0 mm | - | - | - |
| 1777442908 | 3.89° C | 59% | 1004.6 hPa | 0 mm | - | - | - |
| 1777442608 | 3.33° C | 58% | 1004.8 hPa | 0 mm | - | - | - |
| 1777442307 | 2.78° C | 59% | 1004.7 hPa | 0 mm | - | - | - |
| 1777442007 | 2.78° C | 63% | 1004.7 hPa | 0 mm | - | - | - |
| 1777441706 | 2.22° C | 63% | 1004.7 hPa | 0 mm | - | - | - |
| 1777441406 | 1.67° C | 65% | 1004.8 hPa | 0 mm | - | - | - |
| 1777441105 | 1.11° C | 66% | 1004.8 hPa | 0 mm | - | - | - |
| 1777440805 | 0.56° C | 67% | 1004.8 hPa | 0 mm | - | - | - |
| 1777440504 | 0° C | 72% | 1004.6 hPa | 0 mm | - | - | - |
| 1777440204 | 0° C | 69% | 1004.7 hPa | 0 mm | - | - | - |
| 1777439903 | 0.56° C | 67% | 1004.8 hPa | 0 mm | - | - | - |
* Rain latest hour (hover to see other rain measurements)
** Current wind speed in m/s (hover to see current wind gust speed)